This demonstration page uses our WeatherBlox Daily Observations layout. Learn more.

Left ArrowRight Arrow

Hourly Observations for November 5, 2020

Temp ( °F °C ) Dew Point ( °F °C ) Humidity (%) Winds ( mph kmh ) Pressure ( in mb ) Visibility ( mi km ) Precip ( " mm )
12:56 am 00:56 Clear 49 9.4 33 0.6 55 55 NNW 9 15 30.09 1019 10 16 0.00 0.00
1:56 am 01:56 Clear 52 11.1 32 0 47 47 NNW 14 22 30.10 1019 10 16 0.00 0.00
2:56 am 02:56 Clear 48 8.9 30 -1.1 50 50 NNW 12 19 30.12 1020 10 16 0.00 0.00
3:56 am 03:56 Clear 48 8.9 29 -1.7 48 48 NW 7 11 30.14 1021 10 16 0.00 0.00
4:56 am 04:56 Clear 46 7.8 29 -1.7 51 51 NW 7 11 30.15 1021 10 16 0.00 0.00
5:56 am 05:56 Clear 46 7.8 29 -1.7 51 51 NW 8 13 30.20 1023 10 16 0.00 0.00
6:56 am 06:56 Clear 45 7.2 30 -1.1 56 56 NW 8 13 30.20 1023 10 16 0.00 0.00
7:56 am 07:56 Sunny 44 6.7 31 -0.6 60 60 WNW 12 19 30.23 1024 10 16 0.00 0.00
8:56 am 08:56 Sunny 53 11.7 33 0.6 47 47 NW 10 17 30.24 1024 10 16 0.00 0.00
9:56 am 09:56 Sunny 62 16.7 36 2.2 38 38 NNW 6 9 30.23 1024 10 16 0.00 0.00
10:56 am 10:56 Sunny 68 20 36 2.2 31 31 N 5 7 30.23 1024 10 16 0.00 0.00
11:56 am 11:56 Sunny 72 22.2 35 1.7 26 26 VRB 3 6 30.22 1023 10 16 0.00 0.00
12:56 pm 12:56 Sunny 75 23.9 35 1.7 23 23 Calm 30.19 1023 10 16 0.00 0.00
1:56 pm 13:56 Sunny 76 24.4 35 1.7 23 23 NNW 5 7 30.17 1022 10 16 0.00 0.00
2:56 pm 14:56 Sunny 76 24.4 35 1.7 23 23 Calm 30.14 1021 10 16 0.00 0.00
3:56 pm 15:56 Sunny 76 24.4 35 1.7 23 23 SSW 5 7 30.13 1020 10 16 0.00 0.00
4:56 pm 16:56 Sunny 71 21.7 36 2.2 28 28 S 5 7 30.14 1021 10 16 0.00 0.00
5:56 pm 17:56 Clear 63 17.2 34 1.1 34 34 SSE 7 11 30.14 1021 10 16 0.00 0.00
6:56 pm 18:56 Clear 58 14.4 34 1.1 41 41 SSE 7 11 30.16 1021 10 16 0.00 0.00
7:56 pm 19:56 Clear 58 14.4 35 1.7 42 42 SSW 7 11 30.16 1021 10 16 0.00 0.00
8:56 pm 20:56 Clear 56 13.3 34 1.1 44 44 SW 6 9 30.14 1021 10 16 0.00 0.00
9:56 pm 21:56 Clear 49 9.4 34 1.1 56 56 S 7 11 30.12 1020 10 16 0.00 0.00
10:56 pm 22:56 Clear 51 10.6 33 0.6 50 50 SSW 6 9 30.11 1020 10 16 0.00 0.00
11:56 pm 23:56 Clear 50 10 33 0.6 52 52 SSW 9 15 30.09 1019 10 16 0.00 0.00

Powered by AerisWeather